Regional Weather Roundup
Issued by NWS Portland, ME

Current Version | Previous Version | Graphics & Text | Print | Product List | Glossary On
Versions: 1 2 3 4 5 6 7 8 9 10 11 12 13 14 15 16 17 18 19 20 21 22 23 24 25 26 27 28 29 30 31 32 33 34 35 36 37 38 39 40 41 42 43 44 45 46 47 48 49 50
000
ASUS41 KGYX 140805
RWRGYX
WEATHER ROUNDUP FOR MAINE AND NEW HAMPSHIRE
NATIONAL WEATHER SERVICE GRAY ME
300 AM EST THU NOV 14 2019

MEZ002-005-006-010-012-015-018-020-021-024-026-027-029-140900-
MAINE

CITY           SKY/WX    TMP DP  RH WIND       PRES   REMARKS
PORTLAND       FAIR      14   8  77 SW5       30.48R
SANFORD        FAIR       6   3  87 CALM      30.47S
BAR HARBOR     FAIR      13   9  84 CALM      30.47R
WISCASSET      FAIR      11   7  84 CALM      30.48S
ROCKLAND       FAIR      14   9  80 W7        30.47R
FRYEBURG       FAIR       7   3  84 CALM      30.44F
LEWISTONAUBURN FAIR       7   3  84 CALM      30.45F
AUGUSTA        FAIR      14   9  80 NW5       30.45S
WATERVILLE     FAIR       7   3  84 CALM      30.42S
BANGOR         FAIR      11   8  88 CALM      30.46R
GREENVILLE       N/A     11   7  84 N6        30.31S
MILLINOCKET    FAIR      13   8  81 NW5       30.43R
HOULTON        FAIR      -1  -5  82 CALM      30.39R
PRESQUE ISLE   FAIR      -3  -7  82 CALM      30.39R
FRENCHVILLE    FAIR      10   5  80 W9        30.31R
CARIBOU        FAIR       7   3  84 SW7       30.36R
$$

NHZ002-005-008-009-011-012-014-140900-
NEW HAMPSHIRE

CITY           SKY/WX    TMP DP  RH WIND       PRES   REMARKS
PORTSMOUTH     MOCLDY    16  10  77 NW3       30.46S
ROCHESTER      FAIR      11   6  81 NW6       30.45S
NASHUA         FAIR      13  10  88 CALM      30.47F
MANCHESTER     MOCLDY    17  10  74 CALM      30.44F
CONCORD        FAIR      10   6  84 CALM      30.45S
LACONIA        FAIR      10   6  84 CALM      30.42F
PLYMOUTH       FAIR      11  10  92 CALM      30.43F
BERLIN         MOCLDY     4  -1  80 CALM      30.37F
WHITEFIELD     MOCLDY     5   1  83 CALM      30.37F
JAFFREY        FAIR      13   9  84 CALM      30.38F
KEENE          FAIR      12  10  92 CALM      30.44F
LEBANON        MOCLDY    15   9  76 CALM      30.42F
MT WASHINGTON  NOT AVBL
$$

VTZ005-007-008-140900-
VERMONT

CITY           SKY/WX    TMP DP  RH WIND       PRES   REMARKS
ST JOHNSBURY     N/A      6   3  87 MISG      30.40F
MONTPELIER     CLOUDY     8   4  83 CALM      30.40S
BURLINGTON     CLOUDY    17   8  67 SE7       30.38F
$$

MAZ007-012-024-CTZ003-RIZ002-NYZ038-NYZ072-140900-
SOUTHERN NEW ENGLAND AND NY

CITY           SKY/WX    TMP DP  RH WIND       PRES   REMARKS
BOSTON         MOCLDY    24   7  48 NW7       30.47F
WORCESTER      FAIR      16   7  67 NW3       30.39F
NANTUCKET      FAIR      27  19  72 W3        30.45S
PROVIDENCE     FAIR      20  12  71 W3        30.48S
HARTFORD       FAIR      21  11  65 CALM      30.46S
ALBANY         CLOUDY    21  12  68 S3        30.43F
NEW YORK CITY  MOCLDY    30  11  45 E9        30.44F
$$

ANZ081-ANZ082-ANZ150-NHZ014-MEZ023>029-140900-
COASTAL MARINE OBSERVATIONS

STATION/POSITION TIME  TEMP    WIND        PRES    WAVE
                       AIR SEA DIR/SP/G            HT/PER
                 (UTC) (F)     (DEG/KT/KT) (MB)    (FT/S)
MOUNT DESERT ROC 0700          360/  4/  6 1030.2R
ISLE OF SHOALS   0700   25     340/  7/  9 1031.3R
JEFFREYS LEDGE   0738      51                N/A     2/ 5
CASHES LEDGE BUO 0750   28 50   30/  2/  6 1031.7R   3/ 5
GEORGES BANK BUO 0750      53              1029.7R   8/ 8
$$

.............KEY..............
   WCI - WIND CHILL
   TC  - TEMPERATURE IN CELSIUS
   VSB - VISIBILITY IN MILES
   HX  - HEAT INDEX
   FAIR- INDICATES FEW OR NO CLOUDS BELOW 12,000 FT, WITH NO
         SIGNIFICANT WEATHER AND/OR OBSTRUCTIONS TO VISIBILITY.





USA.gov is the U.S. government's official web portal to all federal, state and local government web resources and services.